Notices

What's New in latest Release from April 7th, 2021:

- Updated Glossary, including Speed of Maximum Gust, and Total Hourly Precipitation

- Updated national and regional climate services offices contacts and prices information

- Addition of station inventory lists for 1981-2010, 1971-2000, and 1961-1990 Normals.

If you haven't already, please take our survey and provide feedback about our website: https://eccc.sondage-survey.ca/f/LanguageSelection.aspx?s=442ca660-fcf1-47c0-95a9-59707d6fd709

Hourly Data Report for October 20, 2020

CARBERRY CS
MANITOBA
Current Station Operator: ECCC - MSC

49°54'20.900" N
99°21'26.800" W
383.50 m
5010547
71170
WZE

Download Data

Hourly Data (October 2020)
Hourly Data Report for October 20, 2020
TIME
LST
Temp Definition
°C
Dew Point Definition
°C
Rel Hum Definition
%
Precip. Amount Definition
mm

Wind Dir Definition
10's deg

Wind Spd Definition
km/h
Visibility Definition
km
Stn Press Definition
kPa
Hmdx Definition


Wind Chill Definition


Weather Definition


00:00 -7.1 -11.6 70 0.0 18 8   97.46   -11 LegendNANA
01:00 -7.4 -11.3 74 0.0 16 7   97.45   -11 LegendNANA
02:00 -8.2 -11.5 77 0.0 13 7   97.42   -12 LegendNANA
03:00 -9.0 -12.3 77 0.0 15 8   97.38   -13 LegendNANA
04:00 -9.8 -12.3 82 0.0 11 8   97.34   -14 LegendNANA
05:00 -9.2 -12.1 79 0.0 12 12   97.30   -15 LegendNANA
06:00 -8.2 -11.4 78 0.0 12 10   97.27   -13 LegendNANA
07:00 -6.5 -10.2 75 0.0 14 10   97.24   -11 LegendNANA
08:00 -5.2 -9.3 73 0.0 13 11   97.22   -10 LegendNANA
09:00 -3.1 -8.5 66 0.0 11 11   97.21   -7 LegendNANA
10:00 -1.0 -6.9 64 0.0 12 17   97.15   -6 LegendNANA
11:00 0.1 -6.3 62 0.0 12 19   97.10     LegendNANA
12:00 0.6 -5.4 64 0.0 13 19   97.06     LegendNANA
13:00 0.9 -5.0 65 0.0 13 19   96.99     LegendNANA
14:00 -0.1 -3.1 80 0.0 13 16   96.94   -5 LegendNANA
15:00 -1.0 -1.1 100 0.0 11 15   96.92   -6 LegendNANA
16:00 -1.3 -1.3 100 0.0 11 14   96.87   -6 LegendNANA
17:00 -1.4 -1.4 100 0.5 10 13   96.85   -6 LegendNANA
18:00 -1.7 -1.7 100 0.5 10 7   96.86   -4 LegendNANA
19:00 -1.8 -1.9 100 0.3 8 4   96.85   -3 LegendNANA
20:00 -1.8 -1.9 100 0.5 7 6   96.80   -4 LegendNANA
21:00 -1.9 -1.9 100 0.3 6 6   96.80   -4 LegendNANA
22:00 -2.0 -2.0 100 0.2 7 5   96.80   -4 LegendNANA
23:00 -2.1 -2.1 100 0.0 5 3   96.80   -3 LegendNANA

Notes on Data Quality.

Legend

  • E = Estimated
  • M = Missing
  • NA = Not Available*
  • [empty] = Indicates an unobserved value
Date modified: